Flag for U.S.A. Weather past 2 weeks in Palm Springs, California, U.S.A.

Now
97 °F

Clear.


Feels Like: 94 °F
Forecast: 86 / 107 °F
Wind: 13 mph from Northwest

Location: Palm Springs Regional Airport

Current Time: Jul 28, 2014 at 10:46:53 PM

Latest Report: Jul 28, 2014 at 9:53 PM


Visibility: 10 mi

Pressure: 29.90 "Hg

Humidity: 19%

Dew point: 49 °F

Location of Palm SpringsLocation

Historic Weather in Palm Springs — Graph

°F

Palm Springs temperature yesterday

Maximum temperature yesterday: 99 °F (at 5:53 PM)
Minimum temperature yesterday: 83 °F (at 5:53 AM)
Average temperature yesterday: 92 °F

Past Weeks' High & Low Weather Summary

 TemperatureHumidityPressure
High115 °F (Jul 23, 2:53 PM)83% (Jul 25, 2:53 PM)30.02 "Hg (Jul 25, 2:53 PM)
Low75 °F (Jul 18, 5:53 AM)3% (Jul 23, 11:53 AM)29.62 "Hg (Jul 24, 5:53 PM)
Average93 °F30%29.84 "Hg
* Reported Jul 13 9:53 PM — Jul 28 9:53 PM, Palm Springs, Weather by CustomWeather, © 2014

Note: Actual official high and low records may vary slightly from our data, if they occured in-between our weather recording intervals... More about our weather records

Advertising

Palm Springs weather history for previous 24 hours

 ConditionsComfort  
Time TempWeatherWind HumidityBarometerVisibility
9:53 PM
Jul 28
97 °FClear.13 mph19%29.90 "Hg10 mi
8:53 PM99 °FClear.17 mph18%29.88 "Hg10 mi
7:53 PM102 °FScattered clouds.12 mph15%29.86 "Hg10 mi
6:53 PM105 °FScattered clouds.16 mph14%29.85 "Hg10 mi
5:53 PM106 °FSunny.10 mph13%29.85 "Hg10 mi
4:53 PM105 °FBroken clouds.3 mph17%29.87 "Hg10 mi
3:53 PM102 °FBroken clouds.3 mph25%29.90 "Hg10 mi
2:53 PM101 °FBroken clouds.6 mph24%29.91 "Hg10 mi
1:53 PM103 °FScattered clouds.8 mph23%29.93 "Hg10 mi
12:53 PM103 °FSunny.6 mph22%29.95 "Hg10 mi
11:53 AM101 °FSunny.5 mph23%29.97 "Hg10 mi
10:53 AM99 °FBroken clouds.5 mph24%29.98 "Hg10 mi
9:53 AM94 °FBroken clouds.No wind26%29.98 "Hg10 mi
8:53 AM91 °FSunny.5 mph33%29.97 "Hg10 mi
7:53 AM89 °FSunny.No wind34%29.96 "Hg10 mi
6:53 AM88 °FClear.No wind38%29.95 "Hg10 mi
5:53 AM86 °FPassing clouds.3 mph45%29.94 "Hg10 mi
4:53 AM90 °FClear.7 mph34%29.92 "Hg10 mi
3:53 AM90 °FClear.8 mph34%29.92 "Hg10 mi
2:53 AM91 °FClear.6 mph34%29.92 "Hg10 mi
1:53 AM91 °FClear.No wind34%29.92 "Hg10 mi
12:53 AM93 °FClear.10 mph30%29.92 "Hg10 mi
11:53 PM
Jul 27
93 °FClear.6 mph40%29.92 "Hg10 mi
10:53 PM93 °FClear.5 mph41%29.91 "Hg10 mi
Weather by CustomWeather, © 2014

See weather overviewHow to use our weather pages